CW0927 Weather Reports


Display with metric or nautical units.
time (UTC)temp
F
wind
direction
speed
MPH
gust
MPH
rain 1hr
in
rain 24hr
in
rain mn
in
humidity
%
barometer
mb
20260508204847 96 158 2.0 6.0 0.00 0.00 0.00 46 1012.7
20260508204348 96 215 0.0 6.0 0.00 0.00 0.00 47 1012.7
20260508203849 95 250 1.0 10.0 0.00 0.00 0.00 47 1012.8
20260508203328 95 213 2.0 11.0 0.00 0.00 0.00 47 1012.9
20260508202829 96 238 6.0 10.0 0.00 0.00 0.00 47 1013.0
20260508202331 96 315 1.0 7.0 0.00 0.00 0.00 48 1013.0
20260508201830 95 163 1.0 11.0 0.00 0.00 0.00 47 1013.1
20260508201329 96 163 4.0 10.0 0.00 0.00 0.00 45 1013.3
20260508200827 96 228 2.0 10.0 0.00 0.00 0.00 45 1013.3
20260508200327 96 242 3.0 9.0 0.00 0.00 0.00 46 1013.4
20260508195826 96 308 5.0 9.0 0.00 0.00 0.00 46 1013.5
20260508195325 97 252 2.0 6.0 0.00 0.00 0.00 46 1013.6
20260508194848 96 130 2.0 5.0 0.00 0.00 0.00 46 1013.5
20260508194349 96 239 2.0 7.0 0.00 0.00 0.00 46 1013.6
20260508193830 96 286 2.0 8.0 0.00 0.00 0.00 45 1013.6
20260508193330 95 198 2.0 7.0 0.00 0.00 0.00 45 1013.8
20260508192827 95 242 2.0 8.0 0.00 0.00 0.00 47 1013.8
20260508192327 95 243 3.0 8.0 0.00 0.00 0.00 46 1013.8
20260508191828 96 273 1.0 8.0 0.00 0.00 0.00 49 1013.9
20260508191326 95 298 2.0 12.0 0.00 0.00 0.00 49 1014.0
20260508190853 96 231 6.0 12.0 0.00 0.00 0.00 49 1014.1
20260508190355 95 232 2.0 5.0 0.00 0.00 0.00 50 1014.2
20260508185848 95 225 1.0 7.0 0.00 0.00 0.00 51 1014.3
20260508185327 95 257 1.0 7.0 0.00 0.00 0.00 51 1014.4
20260508184828 94 213 2.0 8.0 0.00 0.00 0.00 51 1014.6
20260508184331 95 251 4.0 8.0 0.00 0.00 0.00 52 1014.7
20260508183832 95 238 3.0 8.0 0.00 0.00 0.00 51 1014.7
20260508183359 95 49 1.0 4.0 0.00 0.00 0.00 52 1014.8
20260508182908 94 138 1.0 8.0 0.00 0.00 0.00 52 1014.9
20260508182345 94 206 2.0 8.0 0.00 0.00 0.00 53 1015.0
20260508181849 93 232 2.0 8.0 0.00 0.00 0.00 53 1015.1
20260508181348 94 126 1.0 8.0 0.00 0.00 0.00 52 1015.2
20260508180849 94 261 2.0 6.0 0.00 0.00 0.00 52 1015.3
20260508180345 94 309 1.0 8.0 0.00 0.00 0.00 55 1015.3
20260508175844 93 15 2.0 8.0 0.00 0.00 0.00 53 1015.5
20260508175338 93 263 1.0 8.0 0.00 0.00 0.00 54 1015.6
20260508174838 92 207 2.0 8.0 0.00 0.00 0.00 54 1015.6
20260508174339 91 250 3.0 6.0 0.00 0.00 0.00 57 1015.6
20260508173840 90 11 2.0 6.0 0.00 0.00 0.00 56 1015.7
20260508173341 90 280 1.0 8.0 0.00 0.00 0.00 56 1015.8
20260508172910 90 275 5.0 8.0 0.00 0.00 0.00 55 1015.8
20260508172329 91 284 1.0 8.0 0.00 0.00 0.00 56 1015.9
20260508171832 91 187 3.0 8.0 0.00 0.00 0.00 55 1016.0
20260508171335 91 301 4.0 10.0 0.00 0.00 0.00 55 1016.1
20260508170835 92 281 3.0 10.0 0.00 0.00 0.00 54 1016.1
20260508170331 92 252 4.0 10.0 0.00 0.00 0.00 54 1016.1
20260508165829 91 248 4.0 8.0 0.00 0.00 0.00 54 1016.3
20260508165358 91 240 0.0 8.0 0.00 0.00 0.00 58 1016.3
20260508164905 90 349 3.0 8.0 0.00 0.00 0.00 58 1016.4
20260508164345 90 279 1.0 5.0 0.00 0.00 0.00 58 1016.5
20260508163847 90 239 2.0 8.0 0.00 0.00 0.00 59 1016.6
20260508163347 89 261 3.0 9.0 0.00 0.00 0.00 58 1016.6
20260508162851 89 309 6.0 9.0 0.00 0.00 0.00 58 1016.7
20260508162350 89 13 1.0 7.0 0.00 0.00 0.00 59 1016.8
20260508161832 88 259 3.0 7.0 0.00 0.00 0.00 62 1016.9
20260508161335 88 275 1.0 4.0 0.00 0.00 0.00 62 1017.0
20260508160837 88 309 2.0 9.0 0.00 0.00 0.00 62 1017.1
20260508160336 88 292 4.0 9.0 0.00 0.00 0.00 63 1017.2
20260508155835 87 243 3.0 7.0 0.00 0.00 0.00 63 1017.2
20260508155336 87 295 2.0 8.0 0.00 0.00 0.00 63 1017.2
20260508154905 87 276 4.0 8.0 0.00 0.00 0.00 64 1017.3
20260508154344 87 355 3.0 9.0 0.00 0.00 0.00 63 1017.3
20260508153827 87 286 4.0 9.0 0.00 0.00 0.00 64 1017.4
20260508153327 87 336 2.0 9.0 0.00 0.00 0.00 65 1017.4
20260508152827 86 324 3.0 9.0 0.00 0.00 0.00 67 1017.4
20260508152355 86 251 4.0 9.0 0.00 0.00 0.00 67 1017.4
20260508151859 86 274 2.0 10.0 0.00 0.00 0.00 68 1017.4
20260508151337 85 274 5.0 10.0 0.00 0.00 0.00 67 1017.6
20260508150836 85 265 3.0 11.0 0.00 0.00 0.00 69 1017.7
20260508150344 85 246 3.0 11.0 0.00 0.00 0.00 71 1017.6
20260508145845 84 261 6.0 10.0 0.00 0.00 0.00 70 1017.5
20260508145343 83 350 2.0 9.0 0.00 0.00 0.00 73 1017.4
20260508144842 83 251 4.0 9.0 0.00 0.00 0.00 74 1017.5
20260508144342 83 323 2.0 6.0 0.00 0.00 0.00 76 1017.5
20260508143842 82 307 2.0 10.0 0.00 0.00 0.00 76 1017.5
20260508143346 82 265 4.0 10.0 0.00 0.00 0.00 75 1017.6
20260508142826 83 254 3.0 8.0 0.00 0.00 0.00 76 1017.5
20260508142352 83 351 2.0 6.0 0.00 0.00 0.00 76 1017.5
20260508141914 82 249 2.0 7.0 0.00 0.00 0.00 77 1017.5
20260508141352 82 232 3.0 7.0 0.00 0.00 0.00 77 1017.5
20260508140829 81 302 2.0 7.0 0.00 0.00 0.00 79 1017.5
20260508140330 81 329 1.0 3.0 0.00 0.00 0.00 81 1017.5
20260508135829 81 5 0.0 3.0 0.00 0.00 0.00 81 1017.5
20260508135332 80 292 1.0 5.0 0.00 0.00 0.00 82 1017.4
20260508134831 80 317 2.0 6.0 0.00 0.00 0.00 82 1017.5
20260508134332 80 240 3.0 8.0 0.00 0.00 0.00 82 1017.6
20260508133833 80 259 3.0 8.0 0.00 0.00 0.00 82 1017.5
20260508133337 80 30 2.0 8.0 0.00 0.00 0.00 83 1017.6
20260508132835 79 348 2.0 8.0 0.00 0.00 0.00 84 1017.5
20260508132332 79 321 2.0 7.0 0.00 0.00 0.00 84 1017.5
20260508131902 79 345 2.0 7.0 0.00 0.00 0.00 84 1017.5
20260508131344 79 282 1.0 6.0 0.00 0.00 0.00 85 1017.4
20260508130846 79 242 1.0 6.0 0.00 0.00 0.00 85 1017.4
20260508130347 79 239 3.0 6.0 0.00 0.00 0.00 86 1017.4
20260508125849 79 333 1.0 5.0 0.00 0.00 0.00 86 1017.3
20260508125349 78 56 2.0 8.0 0.00 0.00 0.00 87 1017.3
20260508124852 78 317 2.0 8.0 0.00 0.00 0.00 87 1017.3
20260508124354 78 257 2.0 5.0 0.00 0.00 0.00 87 1017.3
20260508123855 78 236 3.0 4.0 0.00 0.00 0.00 87 1017.3
20260508123337 78 259 0.0 3.0 0.00 0.00 0.00 88 1017.2
20260508122836 78 254 0.0 3.0 0.00 0.00 0.00 88 1017.1
20260508122402 77 254 0.0 1.0 0.00 0.00 0.00 89 1017.1
20260508121842 77 264 0.0 2.0 0.00 0.00 0.00 89 1017.1
20260508121339 76 243 0.0 2.0 0.00 0.00 0.00 90 1017.0
20260508120911 76 249 0.0 2.0 0.00 0.00 0.00 91 1016.9
20260508120349 75 239 0.0 2.0 0.00 0.00 0.00 91 1017.0
20260508115852 75 257 0.0 0.0 0.00 0.00 0.00 91 1017.0
20260508115329 75 257 0.0 1.0 0.00 0.00 0.00 92 1016.9
20260508114830 74 246 0.0 1.0 0.00 0.00 0.00 92 1016.8
20260508114329 74 246 0.0 1.0 0.00 0.00 0.00 92 1016.7
20260508113831 74 246 0.0 0.0 0.00 0.00 0.00 92 1016.6
20260508113333 73 246 0.0 0.0 0.00 0.00 0.00 92 1016.6
20260508112832 73 246 0.0 0.0 0.00 0.00 0.00 92 1016.6
20260508112333 72 246 0.0 0.0 0.00 0.00 0.00 91 1016.5
20260508111836 72 246 0.0 0.0 0.00 0.00 0.00 91 1016.5
20260508111339 72 246 0.0 0.0 0.00 0.00 0.00 91 1016.5
20260508110837 72 246 0.0 0.0 0.00 0.00 0.00 91 1016.4
20260508110336 72 250 0.0 0.0 0.00 0.00 0.00 90 1016.4
20260508105840 72 250 0.0 0.0 0.00 0.00 0.00 90 1016.3
20260508105339 72 250 0.0 0.0 0.00 0.00 0.00 90 1016.2
20260508104908 72 250 0.0 0.0 0.00 0.00 0.00 90 1016.2
20260508104350 72 250 0.0 0.0 0.00 0.00 0.00 89 1016.0
20260508103852 72 250 0.0 0.0 0.00 0.00 0.00 89 1015.9
20260508103354 72 250 0.0 0.0 0.00 0.00 0.00 89 1015.8
20260508102830 72 250 0.0 0.0 0.00 0.00 0.00 90 1015.6
20260508102334 72 250 0.0 0.0 0.00 0.00 0.00 90 1015.6
20260508101833 72 250 0.0 0.0 0.00 0.00 0.00 90 1015.5
20260508101331 72 250 0.0 0.0 0.00 0.00 0.00 90 1015.5
20260508100859 72 250 0.0 0.0 0.00 0.00 0.00 90 1015.5
20260508100340 72 250 0.0 0.0 0.00 0.00 0.00 90 1015.4
20260508095851 73 250 0.0 0.0 0.00 0.00 0.00 90 1015.3
20260508095352 73 250 0.0 0.0 0.00 0.00 0.00 89 1015.3
20260508094852 73 250 0.0 0.0 0.00 0.00 0.00 89 1015.2
20260508094352 73 250 0.0 0.0 0.00 0.00 0.00 89 1015.2
20260508093831 73 250 0.0 0.0 0.00 0.00 0.00 89 1015.1
20260508093328 73 250 0.0 0.0 0.00 0.00 0.00 89 1015.1
20260508092827 73 250 0.0 0.0 0.00 0.00 0.00 89 1015.1
20260508092356 73 250 0.0 0.0 0.00 0.00 0.00 89 1015.2
20260508091904 73 251 0.0 0.0 0.00 0.00 0.00 89 1015.2
20260508091411 73 250 0.0 0.0 0.00 0.00 0.00 89 1015.2
20260508090848 73 250 0.0 0.0 0.00 0.00 0.00 89 1015.2
20260508090327 73 250 0.0 0.0 0.00 0.00 0.00 89 1015.2
20260508085825 73 250 0.0 0.0 0.00 0.00 0.00 90 1015.2
20260508085326 74 250 0.0 0.0 0.00 0.00 0.00 90 1015.2
20260508084909 74 250 0.0 0.0 0.00 0.00 0.00 90 1015.3
20260508084348 74 251 0.0 0.0 0.00 0.00 0.00 90 1015.3
20260508083828 74 250 0.0 1.0 0.00 0.00 0.00 90 1015.2
20260508083328 74 250 0.0 1.0 0.00 0.00 0.00 90 1015.3
20260508082828 74 250 0.0 1.0 0.00 0.00 0.00 89 1015.3
20260508082351 73 253 0.0 1.0 0.00 0.00 0.00 89 1015.3
20260508081851 74 253 0.0 1.0 0.00 0.00 0.00 89 1015.3
20260508081353 73 296 0.0 1.0 0.00 0.00 0.00 89 1015.2
20260508080832 73 296 0.0 0.0 0.00 0.00 0.00 89 1015.3
20260508080335 73 296 0.0 0.0 0.00 0.00 0.00 88 1015.2
20260508075858 73 296 0.0 0.0 0.00 0.00 0.00 88 1015.3
20260508075405 73 296 0.0 0.0 0.00 0.00 0.00 88 1015.2
20260508074912 73 296 0.0 0.0 0.00 0.00 0.00 88 1015.3
20260508074352 74 296 0.0 0.0 0.00 0.00 0.00 88 1015.3
20260508073852 74 296 0.0 0.0 0.00 0.00 0.00 88 1015.4
20260508073334 74 296 0.0 1.0 0.00 0.00 0.00 88 1015.3
20260508072835 74 296 0.0 1.0 0.00 0.00 0.00 88 1015.3
20260508072338 74 296 0.0 2.0 0.00 0.00 0.00 88 1015.3
20260508071840 74 298 0.0 2.0 0.00 0.00 0.00 88 1015.3
20260508071339 74 272 0.0 2.0 0.00 0.00 0.00 87 1015.4
20260508070837 74 258 0.0 0.0 0.00 0.00 0.00 87 1015.3
20260508070340 74 258 0.0 0.0 0.00 0.00 0.00 87 1015.4
20260508065837 74 258 0.0 1.0 0.00 0.00 0.00 87 1015.4
20260508065337 74 250 0.0 1.0 0.00 0.00 0.00 87 1015.3
20260508064838 74 248 0.0 2.0 0.00 0.00 0.00 87 1015.4
20260508064339 74 248 0.0 2.0 0.00 0.00 0.00 87 1015.4
20260508063839 74 257 1.0 2.0 0.00 0.00 0.00 87 1015.5
20260508063341 74 279 0.0 1.0 0.00 0.00 0.00 87 1015.5
20260508062847 74 282 0.0 2.0 0.00 0.00 0.00 86 1015.6
20260508062346 74 290 0.0 2.0 0.00 0.00 0.00 86 1015.6
20260508061848 75 340 0.0 2.0 0.00 0.00 0.00 86 1015.6
20260508061350 75 296 0.0 3.0 0.00 0.00 0.00 86 1015.6
20260508060850 75 251 0.0 2.0 0.00 0.00 0.00 85 1015.6
20260508060348 75 247 0.0 2.0 0.00 0.00 0.00 85 1015.6
20260508055848 75 238 0.0 3.0 0.00 0.00 0.00 85 1015.7
20260508055347 75 235 0.0 3.0 0.00 0.00 0.00 85 1015.8
20260508054827 75 251 0.0 2.0 0.00 0.00 0.00 84 1015.9
20260508054328 75 242 0.0 2.0 0.00 0.00 0.00 84 1015.8
20260508053827 75 244 0.0 2.0 0.00 0.00 0.00 83 1015.9
20260508053330 75 257 0.0 2.0 0.00 0.00 0.00 83 1015.9
20260508052831 75 253 0.0 2.0 0.00 0.00 0.00 83 1016.0
20260508052340 75 248 0.0 3.0 0.00 0.00 0.00 82 1015.9
20260508051843 75 269 0.0 3.0 0.00 0.00 0.00 82 1015.9
20260508051344 76 262 0.0 3.0 0.00 0.00 0.00 82 1016.0
20260508050845 76 284 1.0 3.0 0.00 0.00 0.00 82 1016.0
20260508050343 76 242 1.0 3.0 0.00 0.00 0.00 81 1016.0
20260508045843 76 250 1.0 4.0 0.00 0.00 0.00 81 1016.0
20260508045343 76 263 1.0 4.0 0.00 0.00 0.00 80 1016.0
20260508044846 76 240 1.0 3.0 0.00 0.00 0.00 80 1016.0
20260508044346 76 267 0.0 3.0 0.00 0.00 0.00 79 1016.1
20260508043848 76 259 1.0 3.0 0.00 0.00 0.00 79 1016.1
20260508043357 76 275 0.0 4.0 0.00 0.00 0.00 79 1016.2
20260508042835 76 273 1.0 4.0 0.00 0.00 0.00 78 1016.2
20260508042336 76 321 1.0 3.0 0.00 0.00 0.00 78 1016.1
20260508041906 77 257 1.0 4.0 0.00 0.00 0.00 77 1016.1
20260508041347 77 251 0.0 4.0 0.00 0.00 0.00 77 1016.1
20260508040843 77 231 1.0 3.0 0.00 0.00 0.00 77 1016.1
20260508040344 77 242 2.0 4.0 0.00 0.00 0.00 77 1016.2
20260508035842 77 248 0.0 4.0 0.00 0.00 0.00 76 1016.1
20260508035340 77 261 0.0 3.0 0.00 0.00 0.00 76 1016.2
20260508034841 77 272 0.0 5.0 0.00 0.00 0.00 76 1016.2
20260508034342 77 260 0.0 8.0 0.00 0.00 0.00 76 1016.1
20260508033843 77 331 1.0 8.0 0.00 0.00 0.00 75 1016.1
20260508033346 77 264 1.0 3.0 0.00 0.00 0.00 75 1016.0
20260508032850 78 267 1.0 3.0 0.00 0.00 0.00 75 1016.0
20260508032347 78 300 0.0 2.0 0.00 0.00 0.00 74 1016.1
20260508031853 78 259 1.0 3.0 0.00 0.00 0.00 74 1016.0
20260508031353 78 259 1.0 3.0 0.00 0.00 0.00 74 1015.9
20260508030848 78 263 2.0 5.0 0.00 0.00 0.00 74 1015.8
20260508030349 78 252 3.0 5.0 0.00 0.00 0.00 73 1015.8
20260508025827 79 255 2.0 7.0 0.00 0.00 0.00 73 1015.8
20260508025329 79 252 3.0 7.0 0.00 0.00 0.00 72 1015.8
20260508024828 79 238 1.0 5.0 0.00 0.00 0.00 72 1015.8
20260508024328 79 231 2.0 7.0 0.00 0.00 0.00 71 1015.7
20260508023828 79 267 2.0 7.0 0.00 0.00 0.00 71 1015.7
20260508023329 80 242 2.0 7.0 0.00 0.00 0.00 70 1015.6
20260508022857 80 243 3.0 9.0 0.00 0.00 0.00 70 1015.6
20260508022406 80 252 2.0 9.0 0.00 0.00 0.00 69 1015.6
20260508021828 80 243 2.0 10.0 0.00 0.00 0.00 69 1015.6
20260508021332 80 263 6.0 10.0 0.00 0.00 0.00 68 1015.5
20260508020830 81 275 2.0 9.0 0.00 0.00 0.00 67 1015.5
20260508020334 81 294 3.0 9.0 0.00 0.00 0.00 66 1015.4
20260508015835 81 251 2.0 4.0 0.00 0.00 0.00 64 1015.5
20260508015336 81 261 1.0 4.0 0.00 0.00 0.00 64 1015.3
20260508014835 81 257 2.0 5.0 0.00 0.00 0.00 63 1015.3
20260508014339 82 271 3.0 5.0 0.00 0.00 0.00 63 1015.3
20260508013842 82 288 1.0 10.0 0.00 0.00 0.00 62 1015.3
20260508013346 82 221 3.0 10.0 0.00 0.00 0.00 61 1015.2
20260508012848 82 249 3.0 7.0 0.00 0.00 0.00 60 1015.1
20260508012358 82 266 2.0 5.0 0.00 0.00 0.00 58 1015.1
20260508011841 82 248 1.0 5.0 0.00 0.00 0.00 58 1015.0
20260508011345 83 267 2.0 6.0 0.00 0.00 0.00 57 1015.0
20260508010827 83 265 2.0 7.0 0.00 0.00 0.00 56 1014.9
20260508010327 83 262 3.0 7.0 0.00 0.00 0.00 55 1014.9
20260508005828 83 268 2.0 6.0 0.00 0.00 0.00 54 1014.9
20260508005329 84 259 3.0 6.0 0.00 0.00 0.00 52 1014.9
20260508004832 84 253 2.0 5.0 0.00 0.00 0.00 51 1015.0
20260508004335 84 258 1.0 5.0 0.00 0.00 0.00 51 1014.9
20260508003838 84 325 2.0 7.0 0.00 0.00 0.00 50 1014.9
20260508003347 85 255 1.0 7.0 0.00 0.00 0.00 49 1014.9
20260508002827 85 268 2.0 7.0 0.00 0.00 0.00 48 1014.9
20260508002328 85 238 2.0 6.0 0.00 0.00 0.00 46 1014.8
20260508001831 85 252 2.0 5.0 0.00 0.00 0.00 45 1014.9
20260508001334 86 239 2.0 5.0 0.00 0.00 0.00 44 1014.7
20260508000833 86 271 2.0 8.0 0.00 0.00 0.00 43 1014.7
20260508000357 86 241 4.0 8.0 0.00 0.00 0.00 42 1014.6
20260507235906 87 256 2.0 6.0 0.00 0.00 0.00 41 1014.6
20260507235346 87 242 2.0 7.0 0.00 0.00 0.00 40 1014.6
20260507234828 87 213 2.0 7.0 0.00 0.00 0.00 38 1014.6
20260507234331 88 248 3.0 12.0 0.00 0.00 0.00 38 1014.6
20260507233830 88 248 2.0 12.0 0.00 0.00 0.00 38 1014.6
20260507233333 88 256 3.0 8.0 0.00 0.00 0.00 38 1014.5
20260507232834 89 242 3.0 8.0 0.00 0.00 0.00 37 1014.5
20260507232337 89 250 2.0 9.0 0.00 0.00 0.00 37 1014.5
20260507231840 89 259 4.0 10.0 0.00 0.00 0.00 36 1014.5
20260507231343 90 254 4.0 10.0 0.00 0.00 0.00 36 1014.5
20260507230846 90 253 4.0 12.0 0.00 0.00 0.00 35 1014.4
20260507230331 90 298 5.0 12.0 0.00 0.00 0.00 35 1014.4
20260507225829 91 279 2.0 12.0 0.00 0.00 0.00 34 1014.4
20260507225331 91 284 4.0 10.0 0.00 0.00 0.00 34 1014.5
20260507224834 91 282 2.0 6.0 0.00 0.00 0.00 32 1014.5
20260507224337 92 259 3.0 7.0 0.00 0.00 0.00 31 1014.5
20260507223846 92 257 2.0 10.0 0.00 0.00 0.00 30 1014.5
20260507223348 92 310 4.0 10.0 0.00 0.00 0.00 29 1014.4
20260507222850 93 297 3.0 10.0 0.00 0.00 0.00 30 1014.4
20260507222331 93 323 3.0 12.0 0.00 0.00 0.00 30 1014.3
20260507221833 93 292 5.0 11.0 0.00 0.00 0.00 31 1014.3
20260507221403 93 268 3.0 11.0 0.00 0.00 0.00 34 1014.2
20260507220845 93 288 5.0 12.0 0.00 0.00 0.00 33 1014.3
20260507220343 93 262 5.0 12.0 0.00 0.00 0.00 34 1014.2
20260507215850 94 306 6.0 14.0 0.00 0.00 0.00 33 1014.3
20260507215352 94 267 5.0 13.0 0.00 0.00 0.00 35 1014.2
20260507214856 95 280 5.0 11.0 0.00 0.00 0.00 36 1014.2
20260507212823 95 294 4.0 17.0 0.00 0.00 0.00 39 1014.1
20260507212325 95 338 9.0 17.0 0.00 0.00 0.00 39 1014.2
20260507211826 96 245 5.0 15.0 0.00 0.00 0.00 40 1014.2
20260507211327 97 278 5.0 13.0 0.00 0.00 0.00 39 1014.1
20260507210831 97 288 5.0 13.0 0.00 0.00 0.00 37 1014.0
20260507210401 97 309 4.0 10.0 0.00 0.00 0.00 33 1014.0
20260507205843 97 223 4.0 8.0 0.00 0.00 0.00 33 1014.1
20260507205341 97 256 3.0 9.0 0.00 0.00 0.00 33 1014.1